TimeCST,TemperatureF,Dew PointF,Humidity,Sea Level PressureIn,VisibilityMPH,Wind Direction,Wind SpeedMPH,Gust SpeedMPH,PrecipitationIn,Events,Conditions,WindDirDegrees,DateUTC
12:15 AM,19.4,17.6,93,29.69,10.0,Calm,Calm,-,N/A,,Clear,0,2013-11-15 06:15:00
12:35 AM,21.2,19.4,93,29.69,10.0,SSW,3.5,-,N/A,,Clear,210,2013-11-15 06:35:00
12:55 AM,17.6,17.6,100,29.68,10.0,Calm,Calm,-,N/A,,Clear,0,2013-11-15 06:55:00
1:15 AM,19.4,19.4,100,29.67,10.0,Calm,Calm,-,N/A,,Clear,0,2013-11-15 07:15:00
1:35 AM,21.2,19.4,93,29.66,10.0,Calm,Calm,-,N/A,,Clear,0,2013-11-15 07:35:00
1:55 AM,19.4,17.6,93,29.65,10.0,Calm,Calm,-,N/A,,Clear,0,2013-11-15 07:55:00
2:15 AM,19.4,17.6,93,29.64,10.0,Calm,Calm,-,N/A,,Clear,0,2013-11-15 08:15:00
2:35 AM,19.4,17.6,93,29.64,10.0,Calm,Calm,-,N/A,,Clear,0,2013-11-15 08:35:00
2:55 AM,17.6,15.8,93,29.63,10.0,Calm,Calm,-,N/A,,Clear,0,2013-11-15 08:55:00
3:15 AM,19.4,17.6,93,29.63,10.0,WSW,3.5,-,N/A,,Clear,250,2013-11-15 09:15:00
3:35 AM,19.4,17.6,93,29.61,10.0,Calm,Calm,-,N/A,,Clear,0,2013-11-15 09:35:00
3:55 AM,19.4,19.4,100,29.61,10.0,Calm,Calm,-,N/A,,Clear,0,2013-11-15 09:55:00
4:15 AM,19.4,19.4,100,29.59,10.0,Calm,Calm,-,N/A,,Clear,0,2013-11-15 10:15:00
4:35 AM,21.2,19.4,93,29.58,10.0,Calm,Calm,-,N/A,,Clear,0,2013-11-15 10:35:00
4:55 AM,17.6,15.8,93,29.58,10.0,Calm,Calm,-,N/A,,Clear,0,2013-11-15 10:55:00
5:15 AM,17.6,17.6,100,29.57,10.0,Calm,Calm,-,N/A,,Clear,0,2013-11-15 11:15:00
5:35 AM,19.4,19.4,100,29.57,10.0,SW,4.6,-,N/A,,Clear,230,2013-11-15 11:35:00
5:55 AM,19.4,19.4,100,29.56,10.0,Calm,Calm,-,N/A,,Clear,0,2013-11-15 11:55:00
6:15 AM,19.4,17.6,93,29.55,10.0,Calm,Calm,-,N/A,,Clear,0,2013-11-15 12:15:00
6:35 AM,23.0,19.4,86,29.54,10.0,SW,3.5,-,N/A,,Clear,230,2013-11-15 12:35:00
6:55 AM,23.0,19.4,86,29.54,10.0,WSW,3.5,-,N/A,,Clear,240,2013-11-15 12:55:00
7:15 AM,21.2,19.4,93,29.53,10.0,Calm,Calm,-,N/A,,Clear,0,2013-11-15 13:15:00
7:35 AM,23.0,21.2,93,29.53,10.0,Calm,Calm,-,N/A,,Clear,0,2013-11-15 13:35:00
7:55 AM,23.0,21.2,93,29.52,10.0,Calm,Calm,-,N/A,,Clear,0,2013-11-15 13:55:00
8:15 AM,19.4,17.6,93,29.52,10.0,Calm,Calm,-,N/A,,Clear,0,2013-11-15 14:15:00
8:35 AM,23.0,21.2,93,29.52,10.0,SW,5.8,-,N/A,,Clear,220,2013-11-15 14:35:00
8:55 AM,26.6,24.8,93,29.52,10.0,SW,8.1,-,N/A,,Clear,220,2013-11-15 14:55:00
9:15 AM,28.4,26.6,93,29.51,10.0,WSW,6.9,-,N/A,,Clear,240,2013-11-15 15:15:00
9:35 AM,30.2,26.6,86,29.51,10.0,SW,6.9,-,N/A,,Clear,230,2013-11-15 15:35:00
9:55 AM,32.0,28.4,87,29.50,10.0,SW,8.1,-,N/A,,Clear,220,2013-11-15 15:55:00
10:15 AM,35.6,30.2,81,29.50,10.0,SSW,9.2,-,N/A,,Clear,210,2013-11-15 16:15:00
10:35 AM,39.2,30.2,70,29.50,10.0,SW,9.2,-,N/A,,Clear,230,2013-11-15 16:35:00
10:55 AM,41.0,28.4,61,29.50,10.0,SW,11.5,-,N/A,,Clear,230,2013-11-15 16:55:00
11:15 AM,42.8,28.4,57,29.49,10.0,SW,15.0,-,N/A,,Clear,230,2013-11-15 17:15:00
11:35 AM,44.6,26.6,49,29.48,10.0,SW,13.8,21.9,N/A,,Clear,230,2013-11-15 17:35:00
11:55 AM,44.6,26.6,49,29.47,10.0,WSW,15.0,-,N/A,,Clear,240,2013-11-15 17:55:00
12:15 PM,44.6,26.6,49,29.45,10.0,SW,16.1,20.7,N/A,,Clear,220,2013-11-15 18:15:00
12:35 PM,46.4,28.4,50,29.44,10.0,SW,12.7,18.4,N/A,,Clear,220,2013-11-15 18:35:00
12:55 PM,46.4,28.4,50,29.43,10.0,WSW,15.0,-,N/A,,Clear,240,2013-11-15 18:55:00
1:15 PM,48.2,24.8,40,29.43,10.0,SW,13.8,19.6,N/A,,Clear,230,2013-11-15 19:15:00
1:35 PM,48.2,24.8,40,29.42,10.0,SW,15.0,19.6,N/A,,Clear,230,2013-11-15 19:35:00
1:55 PM,48.2,24.8,40,29.40,10.0,WSW,15.0,18.4,N/A,,Clear,240,2013-11-15 19:55:00
2:15 PM,48.2,24.8,40,29.39,10.0,WSW,11.5,16.1,N/A,,Clear,250,2013-11-15 20:15:00
2:35 PM,48.2,24.8,40,29.38,10.0,WSW,11.5,18.4,N/A,,Clear,240,2013-11-15 20:35:00
2:55 PM,48.2,24.8,40,29.37,10.0,SW,11.5,-,N/A,,Clear,230,2013-11-15 20:55:00
3:15 PM,48.2,24.8,40,29.37,10.0,WSW,11.5,18.4,N/A,,Clear,240,2013-11-15 21:15:00
3:35 PM,48.2,24.8,40,29.36,10.0,SW,11.5,-,N/A,,Clear,230,2013-11-15 21:35:00
3:55 PM,48.2,24.8,40,29.36,10.0,SW,11.5,-,N/A,,Clear,220,2013-11-15 21:55:00
4:15 PM,46.4,24.8,43,29.35,10.0,SW,10.4,-,N/A,,Clear,220,2013-11-15 22:15:00
4:35 PM,44.6,24.8,46,29.35,10.0,SW,6.9,-,N/A,,Clear,220,2013-11-15 22:35:00
4:55 PM,41.0,23.0,49,29.34,10.0,SSW,6.9,-,N/A,,Clear,200,2013-11-15 22:55:00
5:15 PM,39.2,23.0,52,29.35,10.0,SW,4.6,-,N/A,,Clear,230,2013-11-15 23:15:00
5:35 PM,35.6,23.0,60,29.35,10.0,SW,3.5,-,N/A,,Clear,220,2013-11-15 23:35:00
5:55 PM,33.8,23.0,65,29.34,10.0,SSW,4.6,-,N/A,,Clear,210,2013-11-15 23:55:00
6:15 PM,32.0,21.2,64,29.34,10.0,SSW,4.6,-,N/A,,Clear,210,2013-11-16 00:15:00
6:35 PM,32.0,23.0,69,29.34,10.0,SW,4.6,-,N/A,,Clear,230,2013-11-16 00:35:00
6:55 PM,30.2,21.2,69,29.34,10.0,WSW,3.5,-,N/A,,Clear,240,2013-11-16 00:55:00
7:15 PM,26.6,21.2,80,29.34,10.0,SW,3.5,-,N/A,,Clear,230,2013-11-16 01:15:00
7:35 PM,28.4,23.0,80,29.34,10.0,SSW,6.9,-,N/A,,Clear,210,2013-11-16 01:35:00
7:55 PM,28.4,23.0,80,29.34,10.0,SW,6.9,-,N/A,,Clear,220,2013-11-16 01:55:00
8:15 PM,28.4,23.0,80,29.34,10.0,SW,5.8,-,N/A,,Scattered Clouds,220,2013-11-16 02:15:00
8:35 PM,30.2,24.8,80,29.33,10.0,SW,4.6,-,N/A,,Overcast,230,2013-11-16 02:35:00
8:55 PM,32.0,24.8,75,29.33,10.0,SW,4.6,-,N/A,,Overcast,230,2013-11-16 02:55:00
9:15 PM,32.0,24.8,75,29.32,10.0,SW,6.9,-,N/A,,Overcast,230,2013-11-16 03:15:00
9:35 PM,32.0,24.8,75,29.32,10.0,SW,6.9,-,N/A,,Overcast,230,2013-11-16 03:35:00
9:55 PM,32.0,24.8,75,29.32,10.0,SW,6.9,-,N/A,,Mostly Cloudy,220,2013-11-16 03:55:00
10:15 PM,28.4,23.0,80,29.31,10.0,SW,4.6,-,N/A,,Partly Cloudy,220,2013-11-16 04:15:00
10:35 PM,28.4,23.0,80,29.31,10.0,SW,4.6,-,N/A,,Clear,220,2013-11-16 04:35:00
10:55 PM,26.6,23.0,86,29.31,10.0,SW,5.8,-,N/A,,Clear,230,2013-11-16 04:55:00
11:15 PM,26.6,23.0,86,29.31,10.0,SW,4.6,-,N/A,,Partly Cloudy,220,2013-11-16 05:15:00
11:35 PM,26.6,23.0,86,29.32,10.0,SW,6.9,-,N/A,,Mostly Cloudy,220,2013-11-16 05:35:00
11:55 PM,26.6,23.0,86,29.32,10.0,SW,4.6,-,N/A,,Scattered Clouds,230,2013-11-16 05:55:00